TimeCDT,TemperatureF,Dew PointF,Humidity,Sea Level PressureIn,VisibilityMPH,Wind Direction,Wind SpeedMPH,Gust SpeedMPH,PrecipitationIn,Events,Conditions,WindDirDegrees,DateUTC
12:15 AM,48.6,35.6,61,30.07,10.0,NW,4.6,-,N/A,,Clear,310,2013-10-07 05:15:00
12:35 AM,48.2,35.6,62,30.07,10.0,NW,5.8,-,N/A,,Clear,320,2013-10-07 05:35:00
12:55 AM,47.8,35.6,63,30.08,10.0,NW,5.8,-,N/A,,Clear,320,2013-10-07 05:55:00
1:15 AM,47.5,36.0,64,30.08,10.0,WNW,4.6,-,N/A,,Clear,290,2013-10-07 06:15:00
1:35 AM,47.5,36.0,64,30.09,10.0,West,4.6,-,N/A,,Clear,270,2013-10-07 06:35:00
1:55 AM,47.5,36.0,64,30.09,10.0,West,4.6,-,N/A,,Clear,280,2013-10-07 06:55:00
2:15 AM,46.8,36.0,66,30.09,10.0,WNW,4.6,-,N/A,,Clear,300,2013-10-07 07:15:00
2:55 AM,45.3,36.5,71,30.09,10.0,NW,5.8,-,N/A,,Clear,320,2013-10-07 07:55:00
3:15 AM,45.5,36.5,71,30.09,10.0,West,4.6,-,N/A,,Clear,270,2013-10-07 08:15:00
3:35 AM,46.4,36.5,68,30.09,10.0,West,5.8,-,N/A,,Clear,270,2013-10-07 08:35:00
3:55 AM,45.9,36.5,70,30.09,10.0,West,4.6,-,N/A,,Clear,280,2013-10-07 08:55:00
4:15 AM,45.0,36.5,72,30.09,10.0,WNW,5.8,-,N/A,,Clear,300,2013-10-07 09:15:00
4:35 AM,44.6,36.5,73,30.09,10.0,West,3.5,-,N/A,,Clear,270,2013-10-07 09:35:00
4:55 AM,43.9,36.5,75,30.10,10.0,Calm,Calm,-,N/A,,Clear,0,2013-10-07 09:55:00
5:15 AM,42.4,36.7,80,30.10,10.0,Calm,Calm,-,N/A,,Clear,0,2013-10-07 10:15:00
5:35 AM,42.3,36.5,80,30.10,10.0,Calm,Calm,-,N/A,,Clear,0,2013-10-07 10:35:00
5:55 AM,42.4,36.5,79,30.11,10.0,West,3.5,-,N/A,,Clear,260,2013-10-07 10:55:00
6:15 AM,42.4,36.3,79,30.11,10.0,Calm,Calm,-,N/A,,Clear,0,2013-10-07 11:15:00
6:35 AM,41.0,35.8,82,30.11,10.0,Calm,Calm,-,N/A,,Clear,0,2013-10-07 11:35:00
6:55 AM,40.1,34.9,82,30.11,10.0,Calm,Calm,-,N/A,,Clear,0,2013-10-07 11:55:00
7:15 AM,38.7,35.4,88,30.11,10.0,Calm,Calm,-,N/A,,Clear,0,2013-10-07 12:15:00
7:35 AM,40.1,36.0,85,30.11,10.0,Calm,Calm,-,N/A,,Clear,0,2013-10-07 12:35:00
7:55 AM,40.1,35.8,85,30.12,10.0,Calm,Calm,-,N/A,,Clear,0,2013-10-07 12:55:00
8:15 AM,39.9,36.7,88,30.12,10.0,Calm,Calm,-,N/A,,Clear,0,2013-10-07 13:15:00
8:35 AM,43.2,37.8,81,30.12,10.0,Calm,Calm,-,N/A,,Clear,0,2013-10-07 13:35:00
8:55 AM,45.9,38.5,75,30.12,10.0,Calm,Calm,-,N/A,,Clear,0,2013-10-07 13:55:00
9:15 AM,48.7,39.2,70,30.13,10.0,West,4.6,-,N/A,,Clear,270,2013-10-07 14:15:00
9:35 AM,51.3,39.9,65,30.13,10.0,West,4.6,-,N/A,,Clear,260,2013-10-07 14:35:00
9:55 AM,54.5,40.1,58,30.13,10.0,West,4.6,-,N/A,,Clear,270,2013-10-07 14:55:00
10:15 AM,57.9,38.3,48,30.13,10.0,WSW,4.6,-,N/A,,Clear,240,2013-10-07 15:15:00
10:35 AM,60.4,36.3,41,30.13,10.0,SSW,6.9,-,N/A,,Clear,210,2013-10-07 15:35:00
10:55 AM,63.5,35.2,35,30.13,10.0,SW,9.2,-,N/A,,Clear,230,2013-10-07 15:55:00
11:15 AM,64.8,33.8,32,30.13,10.0,WSW,9.2,16.1,N/A,,Clear,240,2013-10-07 16:15:00
11:35 AM,65.3,33.4,31,30.13,10.0,WSW,12.7,18.4,N/A,,Clear,240,2013-10-07 16:35:00
11:55 AM,66.6,33.8,30,30.13,10.0,WSW,11.5,-,N/A,,Clear,240,2013-10-07 16:55:00
12:15 PM,68.5,34.3,28,30.12,10.0,SW,9.2,-,N/A,,Clear,230,2013-10-07 17:15:00
12:35 PM,69.8,29.8,23,30.12,10.0,SW,10.4,18.4,N/A,,Clear,230,2013-10-07 17:35:00
12:55 PM,70.9,30.6,22,30.11,10.0,SW,9.2,-,N/A,,Clear,230,2013-10-07 17:55:00
1:15 PM,71.6,29.8,21,30.10,10.0,SW,9.2,16.1,N/A,,Clear,220,2013-10-07 18:15:00
1:35 PM,72.3,30.0,21,30.09,10.0,SW,10.4,-,N/A,,Clear,220,2013-10-07 18:35:00
1:55 PM,72.5,29.7,21,30.08,10.0,SSW,12.7,17.3,N/A,,Clear,210,2013-10-07 18:55:00
2:15 PM,73.2,29.3,20,30.07,10.0,SSW,12.7,17.3,N/A,,Clear,210,2013-10-07 19:15:00
2:35 PM,73.9,29.1,19,30.06,10.0,SW,11.5,-,N/A,,Clear,230,2013-10-07 19:35:00
2:55 PM,74.3,30.0,20,30.05,10.0,SSW,10.4,-,N/A,,Clear,210,2013-10-07 19:55:00
3:15 PM,74.7,29.8,19,30.05,10.0,SW,10.4,16.1,N/A,,Clear,220,2013-10-07 20:15:00
3:35 PM,75.7,30.0,19,30.04,10.0,SW,10.4,18.4,N/A,,Clear,230,2013-10-07 20:35:00
3:55 PM,76.1,29.1,18,30.03,10.0,SSW,13.8,17.3,N/A,,Clear,200,2013-10-07 20:55:00
4:15 PM,76.5,29.5,18,30.03,10.0,SSW,11.5,-,N/A,,Clear,200,2013-10-07 21:15:00
4:35 PM,76.6,28.8,17,30.03,10.0,SSW,12.7,16.1,N/A,,Clear,200,2013-10-07 21:35:00
4:55 PM,76.1,28.4,17,30.02,10.0,SSW,10.4,-,N/A,,Clear,210,2013-10-07 21:55:00
5:15 PM,76.1,29.3,18,30.01,10.0,SSW,11.5,17.3,N/A,,Clear,210,2013-10-07 22:15:00
5:35 PM,75.7,29.8,19,30.01,10.0,SSW,8.1,-,N/A,,Clear,200,2013-10-07 22:35:00
5:55 PM,75.0,31.3,20,30.01,10.0,South,9.2,-,N/A,,Clear,190,2013-10-07 22:55:00
6:15 PM,73.4,33.3,23,30.00,10.0,South,4.6,-,N/A,,Clear,190,2013-10-07 23:15:00
6:35 PM,70.9,35.2,27,30.00,10.0,South,4.6,-,N/A,,Clear,180,2013-10-07 23:35:00
6:55 PM,68.4,36.3,31,30.00,10.0,South,3.5,-,N/A,,Clear,180,2013-10-07 23:55:00
7:15 PM,65.3,37.9,36,30.00,10.0,South,4.6,-,N/A,,Clear,180,2013-10-08 00:15:00
7:35 PM,62.4,39.2,42,30.01,10.0,South,3.5,-,N/A,,Clear,180,2013-10-08 00:35:00
7:55 PM,60.1,39.7,47,30.00,10.0,South,4.6,-,N/A,,Clear,180,2013-10-08 00:55:00
8:15 PM,60.3,39.6,46,30.01,10.0,South,5.8,-,N/A,,Clear,170,2013-10-08 01:15:00
8:35 PM,58.5,40.1,51,30.01,10.0,South,3.5,-,N/A,,Clear,170,2013-10-08 01:35:00
8:55 PM,58.3,40.1,51,30.02,10.0,South,5.8,-,N/A,,Clear,170,2013-10-08 01:55:00
9:15 PM,59.0,39.6,49,30.02,10.0,South,8.1,-,N/A,,Clear,180,2013-10-08 02:15:00
9:35 PM,58.5,39.4,49,30.02,10.0,South,8.1,-,N/A,,Clear,180,2013-10-08 02:35:00
9:55 PM,58.3,39.0,49,30.02,10.0,South,8.1,-,N/A,,Clear,180,2013-10-08 02:55:00
10:15 PM,59.0,38.3,46,30.02,10.0,South,10.4,-,N/A,,Clear,180,2013-10-08 03:15:00
10:35 PM,59.5,37.8,44,30.02,10.0,South,11.5,-,N/A,,Clear,190,2013-10-08 03:35:00
10:55 PM,61.3,36.3,39,30.01,10.0,South,12.7,-,N/A,,Clear,190,2013-10-08 03:55:00
11:15 PM,60.1,36.9,42,30.01,10.0,South,9.2,-,N/A,,Clear,190,2013-10-08 04:15:00
11:35 PM,59.5,36.9,43,30.01,10.0,South,10.4,-,N/A,,Clear,180,2013-10-08 04:35:00
11:55 PM,60.4,36.5,41,30.01,10.0,South,11.5,-,N/A,,Clear,190,2013-10-08 04:55:00